This is the latest recevied weather packets stored in our database for station/object WX5RP. If no packets are shown the sender has not sent any weather packets the latest 10 day(s).
| Time | Temp. | Humidity | Pressure | Rain* | Wind** | Luminosity | Snow |
|---|---|---|---|---|---|---|---|
| 1777974316 | 5.56° C | 82% | 1011.7 hPa | 0 mm | - | 0 W/m² | - |
| 1777973716 | 6.11° C | 82% | 1011.9 hPa | 0 mm | - | 0 W/m² | - |
| 1777973116 | 6.11° C | 82% | 1012.3 hPa | 0 mm | - | 0 W/m² | - |
| 1777972516 | 6.11° C | 81% | 1012.6 hPa | 0 mm | - | 0 W/m² | - |
| 1777971916 | 6.11° C | 82% | 1012.3 hPa | 0 mm | - | 0 W/m² | - |
| 1777971316 | 6.11° C | 81% | 1012 hPa | 0 mm | - | 0 W/m² | - |
| 1777970717 | 6.67° C | 81% | 1012.4 hPa | 0 mm | - | 0 W/m² | - |
| 1777970116 | 6.67° C | 81% | 1012.4 hPa | 0 mm | - | 0 W/m² | - |
| 1777969519 | 6.11° C | 80% | 1012.5 hPa | 0 mm | - | 0 W/m² | - |
| 1777968915 | 6.67° C | 79% | 1012.8 hPa | 0 mm | - | 0 W/m² | - |
| 1777968316 | 6.67° C | 79% | 1012.8 hPa | 0 mm | - | 0 W/m² | - |
| 1777967716 | 6.67° C | 77% | 1012.8 hPa | 0 mm | - | 0 W/m² | - |
| 1777967116 | 6.67° C | 77% | 1012.8 hPa | 0 mm | - | 0 W/m² | - |
| 1777966516 | 6.67° C | 76% | 1012.6 hPa | 0 mm | - | 0 W/m² | - |
| 1777965915 | 6.67° C | 72% | 1012.5 hPa | 0 mm | - | 0 W/m² | - |
| 1777965315 | 8.33° C | 66% | 1012.8 hPa | 0 mm | - | 0 W/m² | - |
| 1777964717 | 10.56° C | 58% | 1012.5 hPa | 0 mm | - | 0 W/m² | - |
| 1777964117 | 9.44° C | 56% | 1012.5 hPa | 0 mm | - | 0 W/m² | - |
| 1777963517 | 9.44° C | 61% | 1012.3 hPa | 0 mm | - | 0 W/m² | - |
| 1777962917 | 9.44° C | 58% | 1012 hPa | 0 mm | - | 0 W/m² | - |
| 1777962317 | 10.56° C | 55% | 1011.8 hPa | 0 mm | - | 0 W/m² | - |
| 1777961717 | 13.33° C | 40% | 1012.5 hPa | 0 mm | - | 0 W/m² | - |
| 1777961117 | 13.89° C | 36% | 1011.9 hPa | 0 mm | - | 0 W/m² | - |
| 1777960517 | 13.33° C | 38% | 1011.3 hPa | 0 mm | - | 0 W/m² | - |
| 1777959917 | 13.89° C | 41% | 1011.7 hPa | 0 mm | - | 0 W/m² | - |
* Rain latest hour (hover to see other rain measurements)
** Current wind speed in m/s (hover to see current wind gust speed)